• en Belgique
  • Liste des pays
  • À 7 jours
  • Température de l'eau
  • Carte satellitaire
  • Carte météo
  • Widgets météo
  • user-avatar
    Se connecter

    Météo par heure à Constantine

    Ce jour, 17 Août, Jeudi

    Heure Température Précipitation Vent Pression Humidité
    00:00 +29°C° 0,1 mm 1 m/s 712 mmHg 56%
    01:00 +29°C° 0 mm 1 m/s 711 mmHg 58%
    02:00 +28°C° 0 mm 1 m/s 711 mmHg 60%
    03:00 +28°C° 0 mm 1 m/s 711 mmHg 61%
    04:00 +28°C° 0 mm 1 m/s 711 mmHg 62%
    05:00 +28°C° 0 mm 1 m/s 711 mmHg 63%
    06:00 +28°C° 0 mm 1 m/s 712 mmHg 63%
    07:00 +29°C° 0 mm 1 m/s 712 mmHg 58%
    08:00 +30°C° 0 mm 1 m/s 712 mmHg 53%
    09:00 +31°C° 0 mm 1 m/s 713 mmHg 48%
    10:00 +32°C° 0 mm 2 m/s 713 mmHg 44%
    11:00 +34°C° 0 mm 2 m/s 713 mmHg 40%
    12:00 +36°C° 0 mm 2 m/s 713 mmHg 36%
    13:00 +36°C° 0 mm 3 m/s 713 mmHg 37%
    14:00 +36°C° 0 mm 3 m/s 712 mmHg 37%
    15:00 +36°C° 0 mm 4 m/s 712 mmHg 38%
    16:00 +35°C° 0 mm 4 m/s 712 mmHg 44%
    17:00 +34°C° 0 mm 4 m/s 712 mmHg 49%
    18:00 +31°C° 0 mm 3 m/s 712 mmHg 54%
    19:00 +30°C° 0 mm 3 m/s 712 mmHg 58%
    20:00 +29°C° 0 mm 2 m/s 712 mmHg 62%
    21:00 +28°C° 0 mm 2 m/s 712 mmHg 66%
    22:00 +28°C° 0,1 mm 1 m/s 712 mmHg 66%
    23:00 +28°C° 0,1 mm 1 m/s 712 mmHg 66%

    Demain, 18 Août, Vendredi

    Heure Température Précipitation Vent Pression Humidité
    00:00 +28°C° 0,1 mm 1 m/s 712 mmHg 66%
    01:00 +27°C° 0 mm 1 m/s 712 mmHg 66%
    02:00 +27°C° 0 mm 1 m/s 712 mmHg 66%
    03:00 +27°C° 0 mm 1 m/s 711 mmHg 67%
    04:00 +27°C° 0 mm 1 m/s 711 mmHg 65%
    05:00 +27°C° 0 mm 1 m/s 712 mmHg 64%
    06:00 +27°C° 0 mm 1 m/s 712 mmHg 62%
    07:00 +29°C° 0 mm 1 m/s 712 mmHg 54%
    08:00 +31°C° 0 mm 1 m/s 712 mmHg 46%
    09:00 +33°C° 0 mm 1 m/s 713 mmHg 39%
    10:00 +35°C° 0 mm 2 m/s 713 mmHg 35%
    11:00 +36°C° 0 mm 2 m/s 712 mmHg 31%
    12:00 +38°C° 0 mm 3 m/s 712 mmHg 28%
    13:00 +38°C° 0 mm 3 m/s 712 mmHg 28%
    14:00 +38°C° 0 mm 4 m/s 712 mmHg 28%
    15:00 +38°C° 0 mm 4 m/s 711 mmHg 28%
    16:00 +36°C° 0 mm 4 m/s 711 mmHg 31%
    17:00 +35°C° 0 mm 3 m/s 711 mmHg 34%
    18:00 +34°C° 0 mm 3 m/s 711 mmHg 37%
    19:00 +33°C° 0 mm 3 m/s 711 mmHg 40%
    20:00 +31°C° 0 mm 2 m/s 711 mmHg 42%
    21:00 +30°C° 0 mm 2 m/s 711 mmHg 45%
    22:00 +30°C° 0 mm 1 m/s 711 mmHg 46%
    23:00 +30°C° 0 mm 1 m/s 711 mmHg 46%

    Après-demain, 19 Août, Samedi

    Heure Température Précipitation Vent Pression Humidité
    00:00 +29°C° 0 mm 1 m/s 711 mmHg 47%
    01:00 +29°C° 0 mm 1 m/s 711 mmHg 48%
    02:00 +28°C° 0 mm 1 m/s 710 mmHg 49%
    03:00 +28°C° 0 mm 1 m/s 710 mmHg 50%
    04:00 +28°C° 0 mm 1 m/s 711 mmHg 50%
    05:00 +28°C° 0 mm 1 m/s 711 mmHg 49%
    06:00 +28°C° 0 mm 1 m/s 711 mmHg 49%
    07:00 +30°C° 0 mm 1 m/s 712 mmHg 45%
    08:00 +31°C° 0 mm 2 m/s 712 mmHg 41%
    09:00 +32°C° 0 mm 2 m/s 713 mmHg 37%
    10:00 +34°C° 0 mm 3 m/s 713 mmHg 35%
    11:00 +35°C° 0 mm 3 m/s 713 mmHg 33%
    12:00 +36°C° 0 mm 4 m/s 713 mmHg 31%
    13:00 +36°C° 0 mm 4 m/s 713 mmHg 32%
    14:00 +36°C° 0 mm 4 m/s 712 mmHg 32%
    15:00 +36°C° 0 mm 5 m/s 712 mmHg 33%
    16:00 +34°C° 0 mm 4 m/s 712 mmHg 36%
    17:00 +33°C° 0 mm 4 m/s 712 mmHg 39%
    18:00 +30°C° 0 mm 4 m/s 712 mmHg 43%
    19:00 +29°C° 0 mm 4 m/s 713 mmHg 49%
    20:00 +28°C° 0 mm 3 m/s 713 mmHg 55%
    21:00 +27°C° 0 mm 3 m/s 713 mmHg 61%
    22:00 +26°C° 0 mm 2 m/s 713 mmHg 65%
    23:00 +25°C° 0 mm 2 m/s 714 mmHg 69%

    20 Août, Dimanche

    Heure Température Précipitation Vent Pression Humidité
    00:00 +25°C° 0 mm 1 m/s 714 mmHg 73%
    01:00 +24°C° 0 mm 1 m/s 713 mmHg 75%
    02:00 +24°C° 0 mm 1 m/s 713 mmHg 76%
    03:00 +24°C° 0 mm 1 m/s 713 mmHg 78%
    04:00 +24°C° 0 mm 1 m/s 713 mmHg 77%
    05:00 +24°C° 0 mm 1 m/s 713 mmHg 76%
    06:00 +24°C° 0 mm 1 m/s 713 mmHg 75%
    07:00 +25°C° 0 mm 1 m/s 714 mmHg 64%
    08:00 +27°C° 0 mm 1 m/s 714 mmHg 53%
    09:00 +29°C° 0 mm 2 m/s 715 mmHg 42%
    10:00 +30°C° 0 mm 2 m/s 714 mmHg 39%
    11:00 +31°C° 0 mm 3 m/s 714 mmHg 35%
    12:00 +33°C° 0 mm 3 m/s 714 mmHg 31%
    13:00 +33°C° 0 mm 4 m/s 714 mmHg 30%
    14:00 +33°C° 0 mm 4 m/s 714 mmHg 30%
    15:00 +34°C° 0 mm 4 m/s 713 mmHg 29%
    16:00 +32°C° 0 mm 4 m/s 713 mmHg 32%
    17:00 +30°C° 0 mm 4 m/s 713 mmHg 34%
    18:00 +28°C° 0 mm 4 m/s 713 mmHg 37%
    19:00 +27°C° 0 mm 3 m/s 713 mmHg 41%
    20:00 +26°C° 0 mm 2 m/s 713 mmHg 44%
    21:00 +25°C° 0 mm 1 m/s 713 mmHg 47%
    22:00 +25°C° 0 mm 1 m/s 713 mmHg 49%
    23:00 +24°C° 0 mm 1 m/s 713 mmHg 50%

    21 Août, Lundi

    Heure Température Précipitation Vent Pression Humidité
    00:00 +24°C° 0 mm 1 m/s 713 mmHg 51%
    01:00 +23°C° 0 mm 1 m/s 712 mmHg 52%
    02:00 +21°C° 0 mm 0 m/s 712 mmHg 52%
    03:00 +21°C° 0 mm 0 m/s 712 mmHg 53%
    04:00 +21°C° 0 mm 0 m/s 712 mmHg 51%
    05:00 +21°C° 0 mm 0 m/s 712 mmHg 50%
    06:00 +21°C° 0 mm 0 m/s 712 mmHg 48%
    07:00 +25°C° 0 mm 1 m/s 713 mmHg 41%
    08:00 +27°C° 0 mm 1 m/s 713 mmHg 35%
    09:00 +29°C° 0 mm 1 m/s 713 mmHg 28%
    10:00 +30°C° 0 mm 1 m/s 713 mmHg 26%
    11:00 +31°C° 0 mm 2 m/s 713 mmHg 23%
    12:00 +33°C° 0 mm 3 m/s 713 mmHg 20%
    13:00 +34°C° 0 mm 3 m/s 712 mmHg 21%
    14:00 +34°C° 0 mm 4 m/s 712 mmHg 21%
    15:00 +34°C° 0 mm 4 m/s 712 mmHg 22%
    16:00 +32°C° 0 mm 4 m/s 712 mmHg 26%
    17:00 +30°C° 0 mm 4 m/s 711 mmHg 30%
    18:00 +29°C° 0 mm 3 m/s 711 mmHg 34%
    19:00 +27°C° 0 mm 3 m/s 711 mmHg 39%
    20:00 +26°C° 0 mm 2 m/s 711 mmHg 43%
    21:00 +25°C° 0 mm 1 m/s 712 mmHg 48%
    22:00 +25°C° 0 mm 1 m/s 711 mmHg 49%
    23:00 +24°C° 0 mm 1 m/s 711 mmHg 50%

    22 Août, Mardi

    Heure Température Précipitation Vent Pression Humidité
    00:00 +24°C° 0 mm 1 m/s 711 mmHg 51%
    01:00 +24°C° 0 mm 1 m/s 711 mmHg 51%
    02:00 +21°C° 0 mm 0 m/s 710 mmHg 51%
    03:00 +21°C° 0 mm 0 m/s 710 mmHg 51%
    04:00 +21°C° 0 mm 0 m/s 711 mmHg 50%
    05:00 +21°C° 0 mm 0 m/s 711 mmHg 49%
    06:00 +22°C° 0 mm 0 m/s 711 mmHg 48%
    07:00 +23°C° 0 mm 0 m/s 711 mmHg 41%
    08:00 +25°C° 0 mm 0 m/s 712 mmHg 35%
    09:00 +27°C° 0 mm 0 m/s 712 mmHg 29%
    10:00 +30°C° 0 mm 1 m/s 712 mmHg 26%
    11:00 +31°C° 0 mm 2 m/s 712 mmHg 23%
    12:00 +34°C° 0 mm 2 m/s 711 mmHg 20%
    13:00 +34°C° 0 mm 3 m/s 711 mmHg 21%
    14:00 +34°C° 0 mm 3 m/s 711 mmHg 21%
    15:00 +34°C° 0 mm 4 m/s 710 mmHg 22%
    16:00 +33°C° 0 mm 4 m/s 710 mmHg 27%
    17:00 +32°C° 0 mm 4 m/s 710 mmHg 33%
    18:00 +29°C° 0 mm 4 m/s 710 mmHg 39%
    19:00 +28°C° 0 mm 3 m/s 710 mmHg 44%
    20:00 +27°C° 0 mm 2 m/s 710 mmHg 50%
    21:00 +26°C° 0 mm 1 m/s 710 mmHg 55%
    22:00 +26°C° 0 mm 1 m/s 710 mmHg 57%
    23:00 +25°C° 0 mm 1 m/s 710 mmHg 58%
    Voir plus